Terug naar catalogus

ONEWEB-0368

ActiefCommunicatiePO
NORAD 49294·PAYLOAD·🇬🇧 United Kingdom

Gelanceerd Oct 14, 2021 vanaf Vostochny Cosmodrome

Loading…

Volgende Passages (komende 24 uur)

TLE

VersSource: CelesTrak SupGP

Epoch: Sep 14, 2026, 15:06 UTC

1 49294C 21090R   26257.62935602 -.00001378  00000+0 -33931-2 0  2573
2 49294  87.9142 256.6036 0002712  84.5004  27.3393 13.20774279    12

Volg ONEWEB-0368 in realtime met AllMySat

Download on the App Store